[[{"header":{"parameterUnit":"m.s-1","parameterCategory":1,"la1":30.2991,"la2":30.254,"lo1":-89.0895,"lo2":-89.0444,"dy":0.0017,"dx":0.0017,"nx":28,"ny":28,"refTime":"2024-05-19T21:00:00:Z","depth":0,"parameterNumber":2,"parameterNumberName":"U-component_of_WINDS"},"data":[0,0,0,0,0,0,0,0,0,0,0,0,0,0,0,0,0,0,0,0,0,0,0,0,0,0,0,0,0,0,0,0,0,0,0,0,0,0,0,0,0,0,0,0,0,0,0,0,0,0,0,0,0,0,0,0,0,0,-0.9589,-0.9589,0,-0.957,-0.957,-0.9569,-0.9535,-0.9534,-0.9534,-0.9533,-0.9513,-0.9514,-0.9514,0,0,0,0,0,0,0,0,0,0,0,0,0,-0.9598,-0.9598,-0.959,-0.9589,-0.9589,-0.957,-0.957,-0.9569,-0.9535,-0.9534,-0.9534,-0.9533,-0.9513,-0.9514,-0.9514,0,0,0,0,0,0,0,0,0,0,0,0,0,-0.9588,-0.9598,-0.959,-0.957,-0.9568,-0.957,-0.957,-0.9569,-0.9535,-0.9534,-0.9533,-0.9532,-0.9513,-0.9514,-0.9514,-0.9534,0,0,-0.9514,-0.9514,0,0,0,0,0,0,0,0,-0.9589,-0.9588,-0.9573,-0.9571,-0.9569,-0.9554,-0.9565,-0.9557,-0.9536,-0.9548,-0.9533,-0.9532,-0.9528,-0.9527,-0.9525,-0.9533,-0.9532,-0.9514,-0.9514,-0.9514,-0.9514,0,0,0,0,0,0,0,-0.9589,-0.9588,-0.9582,-0.9573,-0.957,-0.9562,-0.9559,-0.9564,-0.9543,-0.9546,-0.9544,-0.9542,-0.9526,-0.9525,-0.9524,-0.9532,-0.9514,-0.9514,-0.9514,-0.9514,-0.9556,-0.9557,0,0,0,0,0,0,-0.9593,-0.9589,-0.9582,-0.9581,-0.9576,-0.9562,-0.956,-0.956,-0.9543,-0.954,-0.9543,-0.9541,-0.9525,-0.9524,-0.9524,-0.9546,-0.9514,-0.9514,-0.9514,-0.9555,-0.9556,-0.9557,0,0,0,0,0,0,-0.9593,-0.9593,-0.9583,-0.9584,-0.9583,-0.9563,-0.9564,-0.956,-0.9558,-0.9541,-0.9537,-0.9545,-0.9525,-0.9523,-0.9532,-0.9545,-0.9514,-0.9514,-0.9553,-0.9555,-0.9556,-0.9592,0,0,0,0,0,0,-0.9593,-0.9593,-0.96,-0.9585,-0.9583,-0.9592,-0.9564,-0.956,-0.9559,-0.9555,-0.9542,-0.9538,-0.9524,-0.9532,-0.9532,-0.9545,-0.9515,-0.9552,-0.9554,-0.9556,-0.9589,-0.9594,-0.9599,0,0,0,0,0,-0.9594,-0.9611,-0.9601,-0.96,-0.9591,-0.9592,-0.9591,-0.9574,-0.956,-0.9567,-0.9556,-0.9539,-0.9544,-0.9533,-0.9533,-0.9546,-0.9551,-0.9554,-0.9556,-0.9587,-0.9593,-0.9599,0,0,0,0,0,0,-0.9629,-0.9609,-0.9597,-0.961,-0.9603,-0.9587,-0.9595,-0.9581,-0.9578,-0.9575,-0.9553,-0.955,-0.9562,-0.9554,-0.9543,-0.9565,-0.9545,-0.9547,-0.9569,-0.9574,-0.9579,-0.958,-0.9515,0,0,0,0,0,-0.9638,-0.964,-0.9622,-0.9635,-0.9633,-0.9615,-0.9614,-0.9601,-0.9594,-0.9591,-0.958,-0.9573,-0.9573,-0.9573,-0.9572,-0.9588,-0.9585,-0.9597,-0.9602,-0.9606,-0.9608,-0.9616,-0.9621,-0.9565,-0.9565,-0.9564,0,0,-0.9657,-0.9646,-0.9649,-0.9642,-0.9635,-0.9638,-0.9612,-0.9617,-0.9619,-0.9591,-0.9598,-0.959,-0.9581,-0.9594,-0.9598,-0.9588,-0.9623,-0.9609,-0.9612,-0.9612,-0.9619,-0.9624,-0.9629,-0.9566,-0.9566,-0.9566,0,0,-0.9692,-0.9685,-0.9695,-0.9688,-0.9678,-0.9666,-0.9669,-0.9655,-0.9648,-0.9655,-0.9635,-0.9637,-0.9637,-0.9631,-0.9629,-0.9663,-0.9647,-0.9663,-0.9687,-0.9695,-0.97,-0.9704,-0.9716,-0.972,-0.9665,-0.9666,-0.9666,0,-0.9717,-0.9721,-0.9702,-0.9707,-0.9705,-0.968,-0.969,-0.9685,-0.9675,-0.9674,-0.9663,-0.9663,-0.9655,-0.9666,-0.9674,-0.9673,-0.9675,-0.9664,-0.9701,-0.9704,-0.9708,-0.9719,-0.9724,-0.9668,-0.9667,-0.9667,-0.9667,0,-0.9752,-0.9754,-0.9763,-0.9755,-0.9753,-0.9761,-0.9743,-0.9745,-0.9732,-0.9721,-0.9728,-0.9718,-0.9715,-0.9716,-0.9704,-0.9725,-0.9719,-0.9705,-0.9684,-0.9716,-0.9726,-0.973,-0.967,-0.967,-0.9669,-0.9669,0,0,-0.9808,-0.9789,-0.9793,-0.9788,-0.9776,-0.9778,-0.9784,-0.9781,-0.9782,-0.9777,-0.9782,-0.9783,-0.9769,-0.9766,-0.9753,-0.976,-0.9788,-0.9744,-0.9744,-0.9753,-0.9811,-0.9822,-0.9827,-0.9777,-0.9778,-0.9779,-0.9811,0,-0.9841,-0.9852,-0.9835,-0.9849,-0.9851,-0.9828,-0.9834,-0.9827,-0.9817,-0.9818,-0.9807,-0.9808,-0.979,-0.9788,-0.9794,-0.9783,-0.9799,-0.9781,-0.9782,-0.9782,-0.9785,-0.9832,-0.9844,-0.9875,-0.9815,-0.9816,-0.9816,0,-0.9881,-0.9877,-0.9892,-0.9878,-0.9879,-0.9884,-0.988,-0.9881,-0.9872,-0.9865,-0.9862,-0.9846,-0.9852,-0.9833,-0.984,-0.9828,-0.9828,-0.9822,-0.9823,-0.9823,-0.9801,-0.9833,-0.9884,-0.9889,-0.9822,-0.9822,-0.9822,0,-0.9921,-0.992,-0.9928,-0.9925,-0.991,-0.9914,-0.9908,-0.9899,-0.9898,-0.9894,-0.9893,-0.989,-0.9889,-0.9887,-0.9871,-0.9858,-0.9881,-0.986,-0.9874,-0.9875,-0.988,-0.988,-0.9932,-0.988,-0.988,-0.988,-0.988,0,-0.996,-0.9969,-0.9946,-0.9951,-0.9961,-0.9942,-0.9953,-0.9944,-0.9936,-0.9939,-0.9919,-0.9923,-0.9902,-0.9903,-0.9891,-0.9899,-0.9899,-0.9893,-0.9889,-0.9894,-0.9895,-0.9894,-0.9891,-0.9881,-0.9881,-0.9881,-0.9881,0,-1.0006,-0.999,-0.9998,-0.9983,-0.9979,-0.9988,-0.9975,-0.9979,-0.9968,-0.9972,-0.9972,-0.9955,-0.9956,-0.994,-0.9937,-0.9929,-0.9943,-0.9935,-0.9945,-0.9943,-0.9959,-0.9957,-1.0012,-1.0018,-0.9962,-0.9963,-0.9963,0,-1.0031,-1.0038,-1.0024,-1.0024,-1.0019,-1.0021,-1.002,-1.0001,-1.0001,-0.9992,-0.9997,-0.9996,-0.9994,-0.9996,-0.9984,-0.9982,-0.9974,-0.9993,-0.9974,-0.9978,-0.9974,-0.9974,-0.9974,-0.9997,-0.9998,-0.9999,-0.9999,0,-1.0078,-1.007,-1.0069,-1.0066,-1.0065,-1.0061,-1.0056,-1.0058,-1.0038,-1.0039,-1.0039,-1.0038,-1.0035,-1.0034,-1.003,-1.0023,-1.0008,-1.0005,-1.0009,-1.0014,-1.0019,-1.0016,-0.9957,-1.0004,-1.0004,-1.0003,-1.0003,-1.0003,-1.0114,-1.0119,-1.011,-1.011,-1.0104,-1.01,-1.0104,-1.0093,-1.0093,-1.0089,-1.0078,-1.0081,-1.0072,-1.0065,-1.006,-1.0061,-1.0052,-1.0057,-1.0058,-1.0059,-1.0062,-1.0019,-1.0061,-1.006,-1.006,-1.006,-1.006,0,-1.016,-1.0153,-1.0153,-1.0147,-1.0147,-1.0132,-1.0126,-1.0127,-1.0129,-1.0123,-1.0121,-1.0122,-1.0121,-1.0108,-1.0106,-1.011,-1.0102,-1.011,-1.0109,-1.0108,-1.0071,-1.0068,-1.0115,-1.0115,-1.0115,-1.0115,-1.0115,-1.0115,-1.0184,-1.0191,-1.0183,-1.0187,-1.018,-1.0182,-1.018,-1.0176,-1.0171,-1.0172,-1.0171,-1.0163,-1.0155,-1.0151,-1.015,-1.0146,-1.0146,-1.0156,-1.015,-1.0116,-1.011,-1.0105,-1.0103,-1.0156,-1.0156,-1.0187,-1.0187,-1.0187]},{"header":{"parameterUnit":"m.s-1","parameterCategory":1,"la1":30.2991,"la2":30.254,"lo1":-89.0895,"lo2":-89.0444,"dy":0.0017,"dx":0.0017,"nx":28,"ny":28,"refTime":"2024-05-19T21:00:00:Z","depth":0,"parameterNumber":3,"parameterNumberName":"V-component_of_WINDS"},"data":[0,0,0,0,0,0,0,0,0,0,0,0,0,0,0,0,0,0,0,0,0,0,0,0,0,0,0,0,0,0,0,0,0,0,0,0,0,0,0,0,0,0,0,0,0,0,0,0,0,0,0,0,0,0,0,0,0,0,-1.2629,-1.263,0,-1.272,-1.2721,-1.2722,-1.2763,-1.2762,-1.2762,-1.2762,-1.2857,-1.2859,-1.2862,0,0,0,0,0,0,0,0,0,0,0,0,0,-1.249,-1.2492,-1.2629,-1.263,-1.2631,-1.272,-1.2721,-1.2722,-1.2763,-1.2762,-1.2762,-1.2762,-1.2856,-1.2859,-1.2862,0,0,0,0,0,0,0,0,0,0,0,0,0,-1.2563,-1.2493,-1.2628,-1.2662,-1.2665,-1.272,-1.2721,-1.2723,-1.2763,-1.2762,-1.2762,-1.2762,-1.2855,-1.2859,-1.2863,-1.2891,0,0,-1.2875,-1.2876,0,0,0,0,0,0,0,0,-1.2558,-1.2568,-1.2656,-1.2659,-1.2664,-1.273,-1.2707,-1.2779,-1.2763,-1.2726,-1.2762,-1.2762,-1.2815,-1.2822,-1.284,-1.2895,-1.2899,-1.2875,-1.2877,-1.2879,-1.288,0,0,0,0,0,0,0,-1.2553,-1.2564,-1.2665,-1.2657,-1.2662,-1.2672,-1.2682,-1.2721,-1.277,-1.2729,-1.2732,-1.2742,-1.2817,-1.2836,-1.2842,-1.2901,-1.2875,-1.2878,-1.2881,-1.2882,-1.2985,-1.2985,0,0,0,0,0,0,-1.2543,-1.2559,-1.2662,-1.2668,-1.261,-1.2675,-1.2686,-1.2709,-1.277,-1.2779,-1.2742,-1.2744,-1.2829,-1.2837,-1.2846,-1.2883,-1.2879,-1.2883,-1.2885,-1.2985,-1.2985,-1.2986,0,0,0,0,0,0,-1.254,-1.2551,-1.2658,-1.2614,-1.2629,-1.2678,-1.2702,-1.2711,-1.2729,-1.278,-1.2789,-1.2752,-1.2829,-1.284,-1.2879,-1.2887,-1.2885,-1.2888,-1.2984,-1.2985,-1.2985,-1.2958,0,0,0,0,0,0,-1.2535,-1.255,-1.2561,-1.2614,-1.2631,-1.269,-1.2703,-1.2713,-1.2736,-1.2739,-1.2792,-1.28,-1.283,-1.2873,-1.2883,-1.2892,-1.2891,-1.2984,-1.2985,-1.2985,-1.2958,-1.2958,-1.2957,0,0,0,0,0,-1.253,-1.255,-1.2561,-1.2573,-1.2646,-1.269,-1.27,-1.2733,-1.2736,-1.2748,-1.2781,-1.2799,-1.2884,-1.2877,-1.2889,-1.2899,-1.2984,-1.2984,-1.2985,-1.2959,-1.2958,-1.2957,0,0,0,0,0,0,-1.2496,-1.2557,-1.2571,-1.2608,-1.2644,-1.2697,-1.2713,-1.2731,-1.2767,-1.2768,-1.2808,-1.2819,-1.2855,-1.2881,-1.2872,-1.293,-1.2936,-1.2939,-1.2912,-1.2911,-1.291,-1.2903,-1.2895,0,0,0,0,0,-1.2493,-1.2524,-1.2576,-1.2604,-1.2621,-1.2663,-1.2684,-1.2707,-1.2745,-1.2761,-1.2796,-1.2833,-1.2869,-1.2891,-1.2927,-1.2962,-1.2975,-1.2975,-1.2975,-1.2974,-1.2976,-1.2997,-1.2998,-1.2988,-1.2988,-1.2988,0,0,-1.2487,-1.2524,-1.2541,-1.2598,-1.2628,-1.2659,-1.2676,-1.2709,-1.2733,-1.2766,-1.2805,-1.2833,-1.2877,-1.2915,-1.2933,-1.2937,-1.2981,-1.2975,-1.2973,-1.2976,-1.2998,-1.2999,-1.3,-1.2989,-1.2989,-1.2989,0,0,-1.2491,-1.2522,-1.2549,-1.2579,-1.2625,-1.2653,-1.2659,-1.271,-1.273,-1.277,-1.2796,-1.2825,-1.2885,-1.2916,-1.2939,-1.2956,-1.2974,-1.2966,-1.2962,-1.2982,-1.2983,-1.2984,-1.299,-1.2992,-1.2968,-1.2968,-1.2968,0,-1.2478,-1.2526,-1.256,-1.2592,-1.2616,-1.2648,-1.2675,-1.2703,-1.2758,-1.2774,-1.2778,-1.2855,-1.2887,-1.2932,-1.2936,-1.2954,-1.2963,-1.296,-1.298,-1.2981,-1.2982,-1.2989,-1.2991,-1.2967,-1.2967,-1.2967,-1.2967,0,-1.2507,-1.254,-1.2556,-1.2608,-1.2635,-1.2664,-1.2703,-1.2726,-1.2746,-1.2774,-1.2815,-1.2855,-1.2899,-1.2911,-1.2932,-1.296,-1.2961,-1.2972,-1.2979,-1.2982,-1.2988,-1.2991,-1.2965,-1.2966,-1.2966,-1.2966,0,0,-1.2493,-1.2563,-1.2569,-1.2593,-1.2646,-1.2672,-1.2703,-1.2746,-1.2765,-1.2802,-1.2829,-1.2879,-1.289,-1.2916,-1.294,-1.2958,-1.2969,-1.2967,-1.2969,-1.2966,-1.3004,-1.2995,-1.2997,-1.2982,-1.2982,-1.2983,-1.3,0,-1.2504,-1.2561,-1.2593,-1.2636,-1.2668,-1.2698,-1.2726,-1.2761,-1.2788,-1.2819,-1.285,-1.2885,-1.2896,-1.2912,-1.2931,-1.2964,-1.2977,-1.2963,-1.3008,-1.3009,-1.2996,-1.3001,-1.2992,-1.3007,-1.3003,-1.3003,-1.3004,0,-1.2526,-1.2562,-1.2608,-1.2658,-1.2672,-1.2696,-1.2738,-1.2767,-1.2808,-1.2827,-1.2856,-1.2881,-1.2915,-1.2919,-1.2967,-1.2957,-1.2977,-1.2996,-1.2998,-1.3003,-1.3006,-1.3007,-1.3012,-1.3014,-1.3008,-1.3008,-1.3007,0,-1.2511,-1.2571,-1.2607,-1.2626,-1.2685,-1.2701,-1.2726,-1.2767,-1.2791,-1.2828,-1.2844,-1.2885,-1.2907,-1.2938,-1.2973,-1.2972,-1.3018,-1.3025,-1.3035,-1.3034,-1.3043,-1.3042,-1.3052,-1.3056,-1.3056,-1.3056,-1.3056,0,-1.2521,-1.2548,-1.2601,-1.2622,-1.2654,-1.2691,-1.2722,-1.2749,-1.2786,-1.2814,-1.2843,-1.2869,-1.2913,-1.2945,-1.2972,-1.3008,-1.3018,-1.3035,-1.3042,-1.3032,-1.303,-1.3046,-1.3046,-1.3056,-1.3056,-1.3056,-1.3056,0,-1.2509,-1.2546,-1.2587,-1.2639,-1.2653,-1.2673,-1.2718,-1.2741,-1.277,-1.2805,-1.2816,-1.2861,-1.29,-1.2938,-1.299,-1.3008,-1.3044,-1.3054,-1.303,-1.3034,-1.3042,-1.3041,-1.3063,-1.3067,-1.3068,-1.3068,-1.3068,0,-1.2513,-1.2535,-1.2589,-1.261,-1.2635,-1.2668,-1.2692,-1.273,-1.2755,-1.2803,-1.282,-1.2861,-1.2896,-1.2956,-1.2994,-1.3035,-1.3045,-1.305,-1.3051,-1.3041,-1.3046,-1.3044,-1.3046,-1.3049,-1.3049,-1.3049,-1.3048,0,-1.2517,-1.2534,-1.2568,-1.2608,-1.2636,-1.267,-1.2705,-1.272,-1.2765,-1.2791,-1.283,-1.2857,-1.291,-1.2951,-1.2996,-1.3022,-1.3043,-1.3048,-1.3052,-1.3043,-1.3028,-1.3036,-1.3028,-1.3047,-1.3047,-1.3047,-1.3047,-1.3047,-1.2514,-1.2534,-1.2576,-1.2613,-1.2643,-1.2675,-1.2698,-1.273,-1.2764,-1.281,-1.283,-1.2871,-1.2912,-1.2974,-1.3,-1.3033,-1.3038,-1.3044,-1.3046,-1.3047,-1.3045,-1.3023,-1.3041,-1.3041,-1.3041,-1.3042,-1.3042,0,-1.2519,-1.2547,-1.258,-1.2628,-1.2657,-1.2674,-1.2713,-1.2736,-1.2771,-1.2808,-1.2841,-1.2887,-1.2927,-1.2968,-1.301,-1.3028,-1.3039,-1.3038,-1.3037,-1.3043,-1.3038,-1.303,-1.3029,-1.3029,-1.3029,-1.3029,-1.3029,-1.3029,-1.2525,-1.2561,-1.2583,-1.2634,-1.2662,-1.2702,-1.2723,-1.2752,-1.2782,-1.2832,-1.2864,-1.2891,-1.293,-1.2975,-1.3012,-1.3023,-1.3037,-1.3034,-1.3048,-1.3042,-1.3043,-1.3044,-1.3037,-1.3036,-1.3036,-1.305,-1.305,-1.305]}]]